Location: Kershaw
(34.5481°N, 80.5823°W)
Time: 08:52:17
(UTC+00:00)

Tiros 1 despin weight - Pass Details

Date: 10 October 2022
Orbit: 590 x 637 km, 48.2° (Epoch: 28 November)

Event Time Altitude Azimuth Distance (km) Brightness Sun altitude
Rises 02:38:35 0° 285° (WNW) 2,895 ? -45.4°
Enters shadow 02:39:22 - 281° (W) 2,656 ? -45.6°
Reaches altitude 10° 02:42:10 10° 257° (WSW) 1,995 - -46.1°
Maximum altitude 02:44:06 13° 232° (SW) 1,835 - -46.4°
Drops below altitude 10° 02:46:02 10° 206° (SSW) 2,001 - -46.7°
Sets 02:49:39 0° 178° (S) 2,911 - -47.4°
